Tasiilaq

KL  EN  DA
ASIAQ
Weather Now GREENLAND SURVEY
Updated [WGT/WGST] Temperature [°C] Wind [m/s] Air pressure [hPa] Relative humidity [%] Precipitation [mm]
Present Wind chill Speed Max
30.11 16:00-3,9-9,03,9 ⇓8,0994790,0
30.11 15:00-4,1-9,84,6 ⇓9,4995720,0
30.11 14:00-5,7-12,05,0 ⇓8,3997800,0
30.11 13:00-5,5-11,03,9 ⇓6,9999820,0
30.11 12:00-6,2-10,72,8 ⇒5,81001760,0
30.11 11:00-5,0-8,11,9 ⇘3,61002400,0
30.11 10:00-6,6-10,42,2 ⇒2,91003430,0
30.11 09:00-7,90,00,0 ⇓2,41004550,0
30.11 08:00-8,3-12,12,0 ⇒2,41005530,0
30.11 07:00-8,8-12,01,6 ⇒2,31005550,0
30.11 06:00-8,90,00,0 ⇓3,21006540,0
30.11 05:00-9,2-13,32,1 ⇒3,61006530,0
30.11 04:00-9,90,00,0 ⇓3,61007570,0
30.11 03:00-10,1-15,52,9 ⇒3,21007590,0
30.11 02:00-10,10,00,0 ⇓3,01007640,0
30.11 01:00-10,4-13,61,5 ⇗3,21008590,0
30.11 00:00-10,30,00,6 ⇖4,61008530,0
29.11 23:00-10,5-15,32,4 ⇒3,61008540,0
29.11 22:00-10,5-14,92,1 ⇒2,81008570,0
29.11 21:00-10,80,01,1 ⇑2,91008590,0
29.11 20:00-10,6-15,12,2 ⇒2,71008550,0
29.11 19:00-10,60,00,8 ⇗2,21008540,0
29.11 18:00-10,70,00,5 ⇖2,71007530,0
29.11 17:00-10,3-15,42,6 ⇒4,31007490,0
29.11 16:00-11,1-16,83,0 ⇒3,91006540,0
Position: (65.611111111,-37.63666666)

[Back]